Weather History for Pau, France

Change the Weather History Date:

Thursday, October 24, 2013

  Actual Average Record
Temperature  
Mean Temperature 65 °F -  
Max Temperature 77 °F 57 °F 86 °F (2004)
Min Temperature 53 °F 42 °F 37 °F (2003)
Growing Degree Days 15 (Base 50)    
Moisture  
Dew Point 51 °F    
Average Humidity 66    
Maximum Humidity 82    
Minimum Humidity 39    
Precipitation  
Precipitation 0.00 in - - ()
Sea Level Pressure  
Sea Level Pressure 29.89 in    
Wind  
Wind Speed 5 mph ()    
Max Wind Speed 9 mph    
Max Gust Speed -    
Visibility 6.2 miles    
Events Rain    
Averages and records for this station are not official NWS values.
T = Trace of Precipitation, MM = Missing Value Source: Averaged Metar Reports

Daily Weather History Graph

Daily Weather History Graph

Search for Another Location

Airport:

Trip Planner

Search our weather history database for the weather conditions in past years. The results will help you decide how hot, cold, wet, or windy it might be!

Date:

Astronomy

Oct. 24, 2013 Rise Set
Actual Time 8:26 AM CEST 7:04 PM CEST
Civil Twilight 7:57 AM CEST 7:33 PM CEST
Nautical Twilight 7:24 AM CEST 8:06 PM CEST
Astronomical Twilight 6:51 AM CEST 8:39 PM CEST
Moon 11:11 PM CEST (10/24) 1:21 PM CEST (10/24)
Length of Visible Light 11h 36m
Length of Day
10h 37m
Waning Gibbous, 73% of the Moon is Illuminated
Oct 24
Waning Gibbous
Oct 27
Last Quarter
Nov 3
New
Nov 10
First Quarter
Nov 17
Full

Hourly Weather History & Observations

Time (CEST) Temp. Dew Point Humidity Pressure Visibility Wind Dir Wind Speed Gust Speed Precip Events Conditions
12:00 AM 57.2 °F 50.0 °F 77% 30.01 in 6.2 mi ESE 4.6 mph - N/A   Unknown
12:30 AM 57.2 °F 50.0 °F 77% 30.01 in 6.2 mi SE 6.9 mph - N/A   Unknown
1:00 AM 55.4 °F 50.0 °F 82% 30.01 in 6.2 mi ESE 6.9 mph - N/A   Unknown
1:30 AM 55.4 °F 50.0 °F 82% 30.01 in 6.2 mi SE 4.6 mph - N/A   Unknown
2:00 AM 55.4 °F 50.0 °F 82% 29.98 in 6.2 mi ESE 4.6 mph - N/A   Unknown
2:30 AM 55.4 °F 50.0 °F 82% 29.98 in 6.2 mi SE 3.5 mph - N/A   Unknown
3:00 AM 55.4 °F 48.2 °F 77% 29.98 in 6.2 mi SE 4.6 mph - N/A   Unknown
3:30 AM 55.4 °F 48.2 °F 77% 29.98 in 6.2 mi SE 5.8 mph - N/A   Unknown
4:00 AM 53.6 °F 48.2 °F 82% 29.98 in 6.2 mi SE 4.6 mph - N/A   Unknown
4:30 AM 55.4 °F 48.2 °F 77% 29.95 in 6.2 mi SE 5.8 mph - N/A   Unknown
5:00 AM 53.6 °F 48.2 °F 82% 29.95 in 6.2 mi ESE 5.8 mph - N/A   Unknown
5:30 AM 53.6 °F 48.2 °F 82% 29.95 in 6.2 mi ESE 5.8 mph - N/A   Unknown
6:00 AM 55.4 °F 48.2 °F 77% 29.95 in - ESE 8.1 mph - N/A   Clear
6:30 AM 53.6 °F 46.4 °F 77% 29.95 in - SE 5.8 mph - N/A   Clear
7:00 AM 53.6 °F 46.4 °F 77% 29.95 in - ESE 5.8 mph - N/A   Clear
7:30 AM 55.4 °F 46.4 °F 72% 29.95 in - ESE 8.1 mph - N/A   Clear
8:00 AM 57.2 °F 46.4 °F 67% 29.95 in - ESE 9.2 mph - N/A   Clear
8:30 AM 57.2 °F 46.4 °F 67% 29.92 in - SE 9.2 mph - N/A   Clear
9:00 AM 57.2 °F 46.4 °F 67% 29.92 in - ESE 8.1 mph - N/A   Clear
9:30 AM 57.2 °F 48.2 °F 72% 29.92 in - Calm Calm - N/A   Clear
10:00 AM 60.8 °F 50.0 °F 68% 29.92 in - SE 8.1 mph - N/A   Clear
10:30 AM 66.2 °F 51.8 °F 60% 29.92 in - ESE 4.6 mph - N/A   Clear
11:00 AM 69.8 °F 51.8 °F 53% 29.92 in - ESE 8.1 mph - N/A   Clear
11:30 AM 69.8 °F 51.8 °F 53% 29.92 in - ESE 8.1 mph - N/A   Clear
12:00 PM 69.8 °F 51.8 °F 53% 29.92 in - ESE 5.8 mph - N/A   Clear
12:30 PM 69.8 °F 51.8 °F 53% 29.89 in - ESE 5.8 mph - N/A   Clear
1:00 PM 69.8 °F 51.8 °F 53% 29.89 in - ESE 3.5 mph - N/A   Clear
1:30 PM 69.8 °F 53.6 °F 56% 29.89 in - ENE 4.6 mph - N/A   Clear
2:00 PM 73.4 °F 53.6 °F 50% 29.86 in - ESE 8.1 mph - N/A   Clear
2:30 PM 75.2 °F 53.6 °F 47% 29.83 in - East 8.1 mph - N/A   Clear
3:00 PM 75.2 °F 50.0 °F 41% 29.83 in - ESE 8.1 mph - N/A   Clear
3:30 PM 75.2 °F 50.0 °F 41% 29.80 in - East 8.1 mph - N/A   Clear
4:00 PM 77.0 °F 50.0 °F 39% 29.80 in - East 8.1 mph - N/A   Clear
4:30 PM 77.0 °F 51.8 °F 41% 29.80 in - East 8.1 mph - N/A   Clear
5:00 PM 75.2 °F 53.6 °F 47% 29.80 in - East 5.8 mph - N/A   Clear
5:30 PM 73.4 °F 55.4 °F 53% 29.80 in - East 3.5 mph - N/A   Clear
6:00 PM 71.6 °F 55.4 °F 57% 29.80 in 6.2 mi ENE 4.6 mph - N/A   Mostly Cloudy
6:30 PM 71.6 °F 55.4 °F 57% 29.80 in 6.2 mi ESE 4.6 mph - N/A   Mostly Cloudy
7:00 PM 69.8 °F 55.4 °F 60% 29.80 in 6.2 mi SE 6.9 mph - N/A   Mostly Cloudy
7:30 PM 68.0 °F 55.4 °F 64% 29.80 in 6.2 mi East 4.6 mph - N/A   Mostly Cloudy
8:00 PM 68.0 °F 55.4 °F 64% 29.80 in 6.2 mi ESE 4.6 mph - N/A   Mostly Cloudy
8:30 PM 66.2 °F 55.4 °F 68% 29.80 in 6.2 mi Variable 1.2 mph - N/A Rain Light Rain
9:00 PM 66.2 °F 57.2 °F 73% 29.80 in 6.2 mi Variable 2.3 mph - N/A   Mostly Cloudy
9:30 PM 66.2 °F 55.4 °F 68% 29.77 in 6.2 mi ESE 4.6 mph - N/A   Unknown
10:00 PM 66.2 °F 57.2 °F 73% 29.77 in 6.2 mi SE 4.6 mph - N/A   Mostly Cloudy
10:30 PM 66.2 °F 57.2 °F 73% 29.77 in 6.2 mi ESE 4.6 mph - N/A   Unknown
11:00 PM 64.4 °F 57.2 °F 77% 29.80 in 6.2 mi East 6.9 mph - N/A   Overcast
11:30 PM 64.4 °F 57.2 °F 77% 29.80 in 6.2 mi Variable 1.2 mph - N/A   Overcast